Location: Linz
(48.3300°N, 14.3000°E)
Time: 02:56:53
(UTC+01:00)

ISS - Pass Details

Date: 14 November 2017
Orbit: 402 x 407 km, 51.6° (Epoch: 20 November)

Event Time Altitude Azimuth Distance (km) Brightness Sun altitude
Exits shadow 05:45:25 27° 269° (W) 803 -2.9 -13.8°
Maximum altitude 05:46:47 46° 211° (SSW) 548 -3.3 -13.6°
Drops below altitude 10° 05:49:55 10° 136° (SE) 1,451 -0.1 -13.1°
Sets 05:52:01 0° 131° (SE) 2,307 1.2 -12.8°
